Ana Sayfa
METAR-TAF:

METAR-TAF

Havaalanları :

Stafford Regional Airport

Stafford, Virginia, Amerika Birleşik Devletleri

Enlem: 38-23-53N, Boylam: 077-27-19W, yükseklik: 65 m

Güncel hava durumu gözlemi

Rapor saat 05:15 UTC de 12 dakika önce yapıldı.
Rüzgar güney/güneybatıdan 8 kt ve 17 kt'a kadar ani rüzgarlar
Sıcaklık 13°C
Nem 100%
Basınç 1012 hPa
Görüş mesafesi: 16.1 km
1200 ft yükseklikte parçalı çok bulutlu

METAR: KRMN 100515Z AUTO 20008G17KT 10SM BKN012 13/13 A2987 RMK AO2 T01250125

Saat: 00:27 (05:27 UTC)


TAF: eksik

4.000'den fazla havaalanı için hava durumu gözlemleri ve tahminleri (METAR ve TAF raporları).

Kullanılabilir istasyonlar harita üzerinde sarı ve kırmızı noktalarla gösterilir.

İstasyonun adını görmek için fareyi noktanın üzerinde gezdirin.

Sonrasında hava gözlem ve tahminlerini görmek için tıklayın.

Haritayı değiştirmek için: yaklaştırmak için siyah artı işaretli yeşil düğmeye ve uzaklaştırmak için de eksi işaretli düğmeye hızla tıklayın; bitişik haritalar için yeşil okları kullanın.


METAR-TAF: